Theta_e
298 299 305 310 312 311 310 310 309 309 309 309 308 309 309 307 307 308 309 311 312 315 315 316 319 319 322 320 321 323 324 327 329 330 331 329 333 332 333 331 332 334 335
297 298 301 308 310 308 309 307 304 303 302 303 304 302 299 299 299 299 299 299 302 308 310 313 314 315 317 318 318 318 321 323 324 327 329 330 329 333 333 333 334 334 334
297 297 299 306 308 305 304 303 301 299 299 298 299 299 299 298 298 298 297 297 300 305 307 309 311 311 312 313 316 316 317 319 322 323 326 329 330 330 334 333 334 334 333
296 296 297 301 304 300 299 299 298 297 298 298 298 298 298 298 298 297 297 297 298 299 302 304 307 308 311 311 313 314 316 316 318 320 321 325 328 330 331 333 333 335 333
296 296 297 297 297 297 297 297 297 297 297 297 297 297 296 296 296 296 296 296 296 296 298 303 305 306 305 307 310 311 311 313 314 317 318 320 323 328 329 330 332 335 333
296 296 296 296 297 297 297 296 297 297 297 297 296 296 296 295 295 295 295 295 295 295 295 295 297 303 304 305 305 309 310 309 310 313 314 317 319 323 328 331 330 331 333
296 296 296 296 296 296 296 297 296 296 296 296 296 296 295 295 295 294 294 294 294 294 294 294 295 297 302 303 303 303 306 308 308 309 311 314 318 320 326 330 331 329 331
296 296 296 296 296 296 296 296 296 296 296 296 295 295 295 295 294 294 294 294 293 293 293 293 293 294 299 297 298 300 303 304 306 307 310 312 315 319 322 329 332 332 331
296 296 296 296 296 296 296 296 296 295 295 295 295 295 294 294 294 294 293 293 293 292 291 291 292 293 293 294 296 297 297 300 305 306 310 311 314 316 320 324 329 332 331
296 295 295 295 296 295 296 295 295 295 295 295 295 294 294 294 294 294 293 292 292 291 291 291 291 292 293 295 296 297 298 299 304 306 308 310 313 315 318 321 324 330 333
295 295 295 295 295 295 295 295 295 295 294 294 294 294 294 294 293 293 292 291 291 290 290 290 290 291 292 294 295 297 298 299 302 305 306 309 312 314 317 319 322 325 330
295 295 295 295 295 295 295 295 295 294 294 294 294 294 293 293 293 292 291 291 290 290 290 289 289 290 291 292 295 297 297 299 301 304 306 308 310 313 315 317 320 322 326
295 295 295 295 295 295 295 294 294 294 294 294 294 294 293 293 292 291 290 290 289 289 289 288 288 289 290 291 295 296 297 297 299 302 304 307 308 311 314 315 318 320 325
295 295 295 295 294 294 294 294 294 293 293 293 293 293 292 292 291 290 289 289 288 288 288 288 288 288 289 291 294 296 296 296 300 301 304 306 307 310 311 314 317 319 321
295 295 295 294 294 294 294 293 293 293 293 293 292 292 292 291 290 290 289 288 287 287 287 287 287 288 289 290 294 295 296 297 300 301 302 305 307 308 310 312 317 318 319
295 295 295 294 294 294 293 293 293 292 292 292 292 292 291 291 289 289 288 288 287 287 287 287 287 287 288 290 294 294 297 298 300 300 301 302 305 308 309 312 315 317 318
295 295 294 294 294 293 293 293 293 292 292 292 292 291 291 290 289 288 288 287 287 287 287 287 287 287 288 290 293 294 298 299 299 300 300 301 303 306 307 311 314 315 317
295 295 295 294 294 293 293 293 292 292 292 291 291 291 290 290 289 288 287 287 286 286 286 286 286 286 287 289 293 293 297 298 298 299 300 300 302 303 306 308 312 314 318
295 295 295 294 294 293 293 292 292 292 291 291 291 290 290 289 288 287 286 286 286 286 286 286 286 286 286 289 292 292 295 298 297 298 298 299 300 301 305 306 309 312 316
295 295 295 294 293 293 292 292 292 291 291 291 290 290 290 289 288 287 286 285 285 285 285 285 285 286 286 289 291 292 291 294 295 298 298 298 299 300 302 305 307 311 315
295 295 295 294 294 293 292 292 291 291 291 290 290 290 290 289 288 287 285 285 285 285 285 285 285 285 286 289 290 290 291 292 292 296 296 296 298 297 300 303 305 309 312
295 295 295 294 294 293 292 292 292 291 291 290 290 289 289 288 287 286 285 284 284 284 284 284 284 285 285 287 287 289 290 291 293 293 295 295 297 296 298 300 302 304 310
295 295 295 295 294 294 292 292 291 291 291 290 290 290 289 288 287 285 284 284 284 284 284 284 284 284 284 286 287 287 288 289 289 291 292 294 297 296 297 299 301 303 303
296 295 295 295 294 293 292 291 291 291 291 290 290 289 287 287 286 285 284 284 284 284 284 284 284 284 284 285 286 286 287 288 288 289 291 293 296 296 297 297 299 303 302
295 295 295 295 294 293 292 291 291 291 290 290 289 289 287 287 286 285 284 284 284 283 283 284 284 284 284 284 284 286 287 287 287 288 289 290 296 296 296 296 296 300 301
295 295 295 295 294 293 292 291 291 290 290 289 289 289 287 287 286 285 284 284 283 283 283 283 283 284 284 284 286 286 286 286 286 287 287 289 291 296 296 296 296 297 298
Wind_Speed
11 13 14 13 16 17 19 21 22 23 24 26 27 27 27 28 29 28 28 27 27 28 27 25 26 24 25 25 22 20 21 20 19 21 22 23 24 25 23 23 21 20 18
12 11 11 15 15 16 18 20 22 25 27 28 28 31 33 33 34 34 34 34 32 28 27 27 25 25 27 27 26 24 22 22 23 22 25 24 26 25 27 25 24 24 21
9 10 12 14 14 17 18 20 24 27 29 30 29 29 30 32 32 33 33 34 34 31 30 29 27 28 27 25 27 27 26 23 24 24 24 28 27 26 27 28 27 27 25
8 10 12 13 14 17 20 23 25 27 25 26 27 28 28 29 30 32 34 35 35 34 34 32 30 29 28 28 27 25 28 27 26 27 27 28 30 30 27 31 30 30 29
8 10 12 15 16 18 21 22 24 22 24 25 26 28 29 30 31 31 31 32 34 35 35 33 32 31 31 30 29 28 29 30 28 31 29 31 32 32 31 32 34 34 33
5 8 12 14 15 18 21 22 19 22 23 25 26 27 28 29 30 31 33 34 34 34 34 35 36 33 33 31 30 31 28 29 31 31 34 32 31 32 32 32 36 38 37
5 8 10 12 13 17 17 16 18 21 23 24 26 27 29 31 32 33 34 35 35 36 36 35 34 35 34 33 30 31 31 30 31 32 34 33 30 29 32 31 37 41 41
4 7 9 10 13 14 15 16 19 22 22 24 25 27 29 31 33 35 36 37 38 37 36 34 34 33 33 35 35 33 30 29 33 32 31 34 32 31 30 35 32 40 42
4 6 7 9 11 13 15 15 18 19 21 24 27 29 32 32 34 36 37 38 39 39 37 36 36 34 34 36 35 34 32 28 34 32 29 31 31 31 28 30 37 36 43
3 3 5 8 10 12 14 16 19 20 22 24 26 28 30 32 35 36 38 40 40 39 38 37 36 35 35 34 33 31 31 28 30 29 30 30 30 31 31 33 37 38 42
2 2 5 7 9 11 13 16 18 19 21 23 25 28 30 34 36 37 38 39 39 39 38 36 35 36 36 34 34 34 30 27 27 28 29 29 28 31 32 34 37 40 37
4 2 4 6 9 11 14 16 17 19 21 24 26 28 31 34 36 38 38 38 38 38 37 36 36 35 37 39 38 35 34 29 24 26 29 27 26 28 30 32 34 42 47
6 2 3 6 9 11 13 15 17 19 21 23 26 29 31 34 36 38 40 41 40 40 40 40 40 40 39 40 39 35 35 30 27 25 32 29 25 24 25 31 33 32 32
6 2 3 6 9 11 13 15 17 19 21 24 27 29 32 35 37 38 39 39 39 39 39 39 40 41 40 41 39 35 32 29 27 22 28 28 27 22 25 29 34 36 41
7 4 3 5 8 11 13 15 16 18 21 24 26 29 32 35 37 38 38 38 38 38 39 40 41 41 40 42 40 38 34 24 22 19 25 24 18 19 25 28 30 39 39
8 5 3 5 8 10 12 14 15 17 19 22 24 28 31 34 36 37 37 38 37 38 38 39 41 41 41 43 42 39 33 23 20 21 22 19 19 16 23 25 24 33 36
9 6 4 5 8 10 11 13 14 16 18 20 24 27 30 33 35 36 36 36 36 36 37 38 40 40 40 42 42 38 31 19 20 21 19 22 24 20 19 23 23 30 36
12 9 6 5 7 9 11 12 14 15 17 20 23 26 29 33 34 34 35 35 35 35 36 36 39 41 40 43 43 37 28 18 22 23 27 20 19 20 16 24 21 30 33
16 11 8 5 6 8 10 11 12 14 16 19 22 26 30 32 33 33 33 33 32 32 33 36 35 39 41 42 42 37 28 17 27 26 32 33 20 20 16 22 25 19 25
19 14 11 7 6 7 9 10 11 13 15 18 22 26 30 31 32 33 32 31 31 31 33 34 36 35 38 40 43 39 30 23 27 23 31 37 35 21 19 19 24 16 15
23 19 13 9 6 7 8 9 9 10 13 18 21 26 28 30 32 33 31 30 29 29 31 32 34 37 37 40 45 45 36 18 35 28 30 34 34 39 20 18 21 18 14
24 19 15 11 8 7 8 9 10 11 14 17 20 23 28 30 31 30 29 28 28 28 28 30 33 36 35 35 35 28 28 33 44 33 31 35 34 37 29 22 17 20 16
29 23 17 13 10 8 9 9 10 10 13 15 18 24 27 28 28 29 27 26 25 25 26 29 30 32 34 32 31 27 19 18 42 37 35 36 33 33 33 22 11 17 28
31 26 21 16 12 10 9 8 9 10 13 17 21 24 25 26 28 27 26 25 23 23 23 25 28 29 30 31 31 29 25 25 26 24 40 36 32 30 32 29 21 12 22
32 28 23 18 14 11 10 8 9 10 12 15 18 21 23 24 25 25 25 24 22 20 21 23 25 26 26 27 27 30 32 30 26 26 28 43 31 30 28 27 23 21 19
35 31 26 21 17 13 10 8 8 9 11 14 18 21 23 24 24 24 23 23 22 20 20 21 22 23 24 25 25 28 31 31 31 29 29 32 31 30 25 26 25 23 21
Wind_Direction
354 14 25 21 18 17 17 20 23 24 21 19 17 15 13 10 7 4 3 2 358 359 352 349 348 343 343 333 325 320 310 303 291 274 279 268 267 262 257 252 247 238 228
359 8 3 29 26 24 29 25 23 22 18 17 16 11 6 2 360 358 356 356 353 353 351 351 342 335 336 336 330 317 310 304 297 284 270 269 260 260 256 249 239 230 229
5 7 12 27 28 29 27 24 24 19 16 11 7 3 360 358 357 356 355 354 354 354 352 347 341 338 335 326 327 322 312 306 302 289 278 264 258 252 251 248 236 233 231
19 15 13 27 33 25 25 25 22 18 11 7 5 3 1 360 358 357 356 354 352 349 346 343 341 337 335 331 322 318 318 306 301 292 279 269 258 250 245 244 239 232 227
17 11 15 23 23 22 25 22 20 11 9 7 6 5 5 3 1 358 354 350 347 345 344 343 341 338 331 327 325 320 312 311 295 292 279 269 265 254 243 244 239 233 228
16 16 20 24 22 23 22 19 11 9 8 7 8 7 4 3 360 357 355 352 348 345 340 336 333 336 333 329 321 318 315 309 299 292 284 276 272 259 245 242 240 241 235
13 22 23 22 20 22 18 10 10 9 8 8 8 6 4 1 359 357 355 352 349 345 342 339 334 331 331 329 324 314 313 309 303 294 291 286 278 262 249 240 240 241 241
13 22 20 17 19 17 11 7 8 8 8 8 7 7 6 2 359 359 356 353 349 346 342 339 336 334 331 325 325 320 311 304 300 295 289 290 283 270 259 240 244 238 237
12 17 11 15 15 12 9 7 9 8 8 8 8 8 5 2 1 359 355 352 348 346 346 344 339 335 329 326 323 319 314 298 298 298 291 287 288 288 271 258 250 243 232
9 354 2 12 7 9 7 8 10 7 7 10 9 7 4 2 2 356 354 352 350 349 346 343 337 335 332 331 324 322 316 301 304 294 292 283 281 280 272 261 254 241 237
274 330 355 359 4 5 4 10 9 5 8 9 9 7 2 3 359 356 355 353 349 347 347 344 342 340 336 334 330 330 320 311 301 304 298 287 286 278 276 269 257 251 258
243 283 339 348 356 359 4 7 4 6 8 8 8 5 5 2 358 355 353 352 351 349 346 345 344 342 339 339 336 332 331 317 297 308 309 302 296 293 282 281 266 249 252
223 254 329 347 351 357 1 5 3 6 7 7 6 5 3 360 356 355 355 355 354 351 351 350 348 348 346 343 340 333 333 321 305 299 301 304 301 306 300 281 268 277 273
217 242 322 336 349 354 360 360 2 4 6 6 5 2 1 358 357 356 356 355 354 352 351 350 349 347 345 344 342 336 333 324 318 304 312 300 299 317 322 300 272 266 260
216 236 302 336 348 351 355 356 359 4 6 6 3 0 0 356 356 356 355 354 352 352 351 350 351 349 347 346 345 339 335 323 314 323 317 310 304 315 322 306 276 272 283
218 235 286 333 343 347 351 353 358 3 4 3 359 360 358 355 354 355 354 353 352 351 351 350 351 351 350 350 349 344 343 330 317 345 318 325 348 329 324 312 287 278 274
222 236 277 324 335 343 346 349 356 359 1 359 358 359 356 354 353 352 353 353 351 349 350 350 351 354 351 353 353 350 350 354 1 359 345 350 325 325 326 330 306 282 270
223 233 260 297 327 337 342 345 352 356 356 357 357 356 353 354 352 350 351 351 351 350 349 351 353 355 354 355 356 1 354 14 12 13 4 342 343 337 330 355 325 291 277
224 227 244 276 312 328 334 340 346 349 353 353 355 354 354 353 349 349 349 350 349 349 352 353 357 358 358 357 360 5 3 346 354 16 10 10 341 340 342 349 8 323 283
222 224 234 252 285 319 326 332 340 344 348 350 354 354 352 349 348 349 348 348 349 351 353 355 357 4 2 0 1 2 14 14 360 2 8 0 8 349 342 355 9 2 333
220 222 229 242 271 305 320 323 328 331 346 352 353 351 348 349 350 350 347 348 349 352 354 355 358 1 8 7 3 4 5 9 14 10 11 2 7 6 2 347 19 25 341
223 222 228 238 259 290 306 313 327 337 347 351 353 346 350 352 349 346 349 350 348 349 353 358 3 3 9 16 7 1 350 355 4 9 7 8 13 2 14 25 19 32 43
218 221 226 235 250 274 296 309 323 335 339 347 348 352 351 348 347 351 351 348 346 349 353 360 3 6 6 12 22 9 352 340 337 343 5 8 12 8 14 26 26 29 34
218 218 222 229 242 262 285 303 315 324 338 349 353 351 350 349 352 351 350 350 350 348 351 358 2 6 6 10 15 16 13 1 345 332 349 4 13 15 18 23 43 27 17
217 219 222 226 234 250 274 295 312 323 340 346 352 348 351 353 353 351 352 352 351 351 351 356 360 4 9 11 15 12 11 5 0 347 335 348 15 21 16 24 33 45 26
213 215 220 225 231 241 260 284 301 318 335 343 348 349 354 356 357 356 355 355 354 353 353 355 358 1 9 13 15 17 14 3 359 356 347 344 351 13 15 25 32 42 45